Wind_Speed
44 44 45 45 45 45 45 46 45 44 44 44 44 45 46 45 45 46 47 47 46 45 45 45 45 44 44 44 44 44 47 49 50 53 55 56 58 59 58 58 57 58 60 61 60 57 55 54 54 56 58 59 62 64 66 69 71 74 76 77 77 77 78 78 77 76 77 77 75 75 75 74 71 65 59 57 54 49 47 49 53 55 56 59 66
45 45 46 45 45 45 46 47 46 46 46 46 46 47 47 47 47 48 48 48 47 46 46 47 48 46 44 43 42 44 47 50 53 55 57 57 58 58 58 59 59 61 61 59 56 54 54 55 56 58 60 63 66 68 71 74 76 79 81 81 82 82 81 80 76 74 75 77 77 78 79 78 74 68 62 57 54 50 48 49 52 55 56 57 62
47 47 47 46 46 47 48 48 48 48 47 47 48 48 48 48 48 49 50 50 49 48 47 48 48 46 44 43 43 45 49 51 53 54 56 56 57 57 58 59 61 61 60 60 60 60 60 61 62 63 65 69 72 75 77 79 81 83 84 86 85 83 80 77 75 74 75 77 79 83 83 80 77 72 65 57 52 48 48 49 51 54 56 57 59
49 49 48 48 48 49 49 50 50 49 50 50 50 50 50 50 50 50 50 50 50 49 47 47 47 46 44 43 44 46 49 49 50 52 54 55 57 58 59 59 60 61 62 64 65 65 65 65 66 68 71 75 78 80 82 83 85 86 87 87 84 80 77 76 76 76 77 79 84 86 85 81 78 75 67 57 49 46 45 48 51 53 56 56 57
51 51 50 50 50 50 51 52 52 52 52 52 52 52 52 52 52 51 50 50 50 50 50 50 49 46 44 45 46 47 48 49 50 52 54 56 57 58 58 59 61 63 64 65 66 66 67 68 70 72 76 80 82 84 86 86 88 88 87 84 80 77 77 77 78 79 81 84 87 88 84 80 78 75 67 55 47 43 42 44 50 54 55 55 55
53 52 52 52 52 52 53 53 54 54 54 55 55 53 53 52 52 51 51 52 53 53 54 53 51 47 45 46 47 47 49 51 53 55 57 58 59 59 60 61 62 63 65 66 67 69 70 72 75 78 81 83 85 86 88 88 88 87 83 79 77 77 79 81 82 83 85 87 89 87 83 80 78 73 63 52 44 41 41 43 48 53 54 53 54
54 54 54 55 54 55 55 55 55 55 56 57 56 53 52 52 51 51 52 54 55 55 52 50 50 48 47 49 51 52 55 57 59 62 63 63 63 63 63 63 64 66 67 69 71 72 75 77 79 82 84 85 86 88 89 88 85 82 79 77 79 81 83 84 86 87 88 90 89 87 83 80 76 69 59 50 44 40 40 43 47 51 51 51 52
56 57 57 57 57 57 56 55 55 54 55 57 57 54 51 49 51 54 53 52 52 51 48 47 48 50 53 56 57 58 60 62 65 68 69 69 68 68 69 70 72 74 76 77 79 80 81 83 85 86 87 88 88 88 87 84 80 78 79 80 82 84 86 87 89 90 91 91 90 87 83 77 70 63 55 50 46 42 40 41 45 48 49 49 51
58 59 60 60 59 58 57 55 54 53 51 52 53 52 50 51 54 55 53 50 50 50 50 50 52 57 59 59 59 59 62 65 68 71 73 74 75 76 77 78 80 82 84 85 86 86 87 89 90 90 88 88 87 86 83 79 77 78 80 82 84 86 88 90 91 93 94 92 90 85 78 71 64 59 56 51 47 44 40 39 42 46 47 48 50
61 61 61 61 61 59 57 55 54 51 49 47 45 45 48 53 55 54 52 53 53 54 54 54 56 60 61 60 61 62 64 68 71 75 78 81 82 83 84 85 86 88 90 90 90 90 91 92 91 89 87 86 85 82 78 76 76 78 81 83 86 89 91 93 95 96 95 91 86 80 73 67 62 60 58 52 46 43 40 37 39 43 45 47 50
63 63 63 62 61 60 57 55 54 51 49 46 41 40 43 49 54 56 54 55 56 55 55 56 58 61 62 63 64 66 70 74 77 81 85 86 87 88 89 90 92 93 94 94 94 94 93 91 89 87 85 84 81 78 75 76 79 82 84 86 89 91 93 95 97 96 91 86 80 75 70 66 64 61 58 52 46 42 39 36 37 40 43 46 49
64 64 62 61 61 59 57 56 55 53 51 48 43 40 38 41 51 56 53 53 57 56 55 57 61 64 66 68 70 74 79 81 84 87 88 88 90 92 93 94 95 96 96 96 95 94 91 87 84 83 82 80 78 76 77 80 83 85 88 90 92 94 96 97 95 91 85 80 76 72 70 68 64 61 57 51 45 41 37 35 35 38 40 44 48
64 63 61 60 59 58 57 57 57 56 54 51 48 44 39 39 46 51 50 53 55 55 57 62 67 70 72 75 78 82 84 86 88 90 90 91 93 95 95 96 96 96 96 94 91 86 81 79 78 78 77 77 77 78 80 83 86 88 91 93 95 98 98 95 90 85 81 77 74 72 70 68 64 59 55 51 44 39 36 34 34 35 38 42 47
63 61 60 59 58 58 58 59 60 59 58 55 53 51 48 44 44 46 53 59 60 60 64 69 72 76 78 81 84 86 88 89 91 92 93 95 96 96 96 96 94 93 90 85 79 74 72 73 74 75 76 78 80 82 84 86 90 93 95 97 99 99 95 90 85 82 79 75 73 72 70 67 64 59 53 49 44 39 35 34 33 32 36 42 47
61 59 58 58 58 59 61 62 63 63 61 60 58 57 55 51 46 47 54 61 64 67 72 74 78 82 84 85 88 89 91 92 92 93 94 95 96 96 95 91 87 84 80 75 71 71 72 74 76 78 80 83 85 87 89 92 94 97 99 100 100 96 90 86 83 80 78 76 74 72 69 65 62 58 53 48 44 39 35 34 33 32 35 43 47
60 59 58 59 59 61 63 64 66 67 66 64 63 62 61 58 54 53 57 61 65 70 73 76 79 82 84 86 88 90 91 92 93 94 93 93 93 90 86 82 78 77 76 74 74 75 76 77 80 82 85 88 91 92 94 96 98 100 101 100 96 91 86 84 82 80 78 76 74 71 68 64 61 58 53 48 44 40 36 34 33 33 36 42 47
61 60 60 61 61 62 65 67 69 70 70 69 67 66 65 64 62 60 62 64 66 69 71 74 78 80 81 84 86 88 90 92 92 91 88 86 83 80 77 77 77 77 77 76 75 76 78 81 84 86 90 93 95 96 97 100 101 101 99 94 89 86 84 83 83 82 79 76 73 70 66 62 60 57 53 48 43 40 37 34 33 34 37 42 45
62 62 63 63 64 65 67 69 71 72 73 72 69 68 67 68 66 64 63 63 64 66 69 72 75 76 78 80 83 85 87 88 87 85 81 78 76 75 75 76 77 77 76 75 76 78 81 84 87 91 94 96 97 99 101 102 100 95 90 86 84 84 85 85 84 83 80 76 71 67 63 60 59 57 53 47 42 39 36 35 34 34 37 40 43
64 65 66 66 67 68 69 70 72 73 73 72 70 69 68 67 66 64 63 63 64 66 68 70 72 74 76 79 81 81 80 79 77 76 74 73 72 71 72 73 75 76 77 79 81 83 86 89 93 96 97 98 100 101 100 96 91 86 83 83 84 85 86 86 85 83 79 75 69 64 61 58 57 55 51 45 41 38 35 35 35 35 36 39 41
66 67 68 70 70 71 71 72 72 72 72 72 71 69 66 65 64 63 63 64 63 64 65 68 70 73 74 76 76 75 74 73 72 70 68 66 65 65 67 72 75 77 80 83 86 89 92 95 97 97 98 99 99 95 91 86 84 83 84 84 86 86 87 86 84 82 78 74 68 63 60 57 54 50 47 44 40 37 33 33 35 35 35 37 40
68 70 71 72 73 73 73 72 72 71 72 72 70 66 64 63 64 63 63 63 62 62 63 65 66 68 69 70 72 73 74 72 69 66 63 62 62 62 64 71 77 80 83 88 90 93 96 97 98 98 97 95 91 86 83 83 83 84 85 86 86 87 87 85 83 81 77 72 65 61 60 57 51 45 42 41 39 35 32 31 34 35 35 36 39
71 72 73 74 74 74 73 72 72 72 72 70 66 64 63 63 62 61 61 61 62 63 64 65 65 66 67 68 69 70 70 69 65 63 64 67 68 66 66 73 80 84 88 91 93 95 97 97 97 95 90 86 83 82 82 83 85 86 87 87 87 87 86 84 82 79 75 69 63 61 59 55 48 41 39 38 37 34 31 31 32 34 34 34 37
73 73 74 75 75 74 73 73 73 72 70 66 64 63 63 62 61 61 62 63 64 65 66 67 68 69 69 68 67 65 65 67 69 70 73 76 76 75 76 80 85 88 90 92 94 94 94 92 89 85 82 81 81 82 84 85 87 88 87 88 87 86 84 81 79 76 72 67 62 60 56 50 43 39 36 35 34 32 31 31 31 32 33 33 35
74 75 75 75 75 74 74 73 72 69 66 65 65 65 65 64 64 64 64 65 66 67 68 69 71 72 72 71 70 66 65 70 75 77 78 79 78 79 81 83 85 87 88 89 89 88 85 83 80 79 80 81 82 84 86 87 88 88 88 87 85 82 80 77 75 73 70 65 61 57 51 45 39 36 34 32 31 30 30 31 31 30 31 32 33
75 76 76 75 75 74 73 72 69 68 68 69 69 68 67 65 65 65 65 66 67 68 70 72 74 75 74 73 73 71 70 73 76 76 76 76 76 77 78 79 81 84 85 84 83 80 79 78 78 79 81 82 84 86 87 88 89 89 88 86 82 79 76 73 71 70 66 62 57 51 46 40 36 34 32 30 29 29 29 31 30 29 29 30 30
76 76 76 75 75 75 74 71 69 69 70 70 70 68 67 66 66 66 67 68 69 70 72 75 76 76 75 75 75 76 76 76 76 75 74 74 74 75 77 79 82 82 81 79 77 76 77 78 80 82 84 85 87 88 88 89 89 87 85 82 78 74 72 69 68 65 61 56 51 45 41 36 34 32 30 28 28 28 29 30 29 26 26 27 28
77 76 76 76 76 75 74 72 70 69 69 69 69 68 68 67 68 68 69 69 71 72 74 75 76 77 78 79 79 79 79 77 76 75 74 74 75 77 79 80 80 78 76 75 75 76 78 80 82 85 87 88 88 88 88 87 85 83 80 76 73 70 68 66 63 59 54 49 45 41 37 34 32 30 28 27 27 28 29 29 27 24 24 24 25
76 76 76 76 76 76 75 73 71 71 70 70 70 70 71 71 71 71 71 71 72 74 75 75 77 79 82 83 83 81 80 77 75 75 75 76 78 79 78 77 75 74 74 75 76 77 80 83 85 87 88 88 88 87 85 82 80 78 74 71 68 66 64 62 58 53 48 44 41 37 34 31 30 29 27 26 26 28 28 26 24 23 22 21 22
77 77 77 77 77 76 76 74 73 73 72 72 73 73 73 73 73 72 72 73 74 76 77 78 81 84 86 85 84 82 80 77 76 77 77 78 77 76 74 73 73 73 75 76 78 81 83 86 87 88 88 87 85 83 81 79 77 74 70 67 65 62 60 58 54 49 44 41 38 35 32 29 29 28 26 25 26 27 26 24 23 22 20 19 20
77 78 77 77 77 76 75 74 74 75 74 73 74 75 74 74 73 73 74 76 78 79 82 84 87 88 87 86 84 82 80 78 78 78 77 76 74 72 72 72 74 75 77 79 82 84 86 87 88 88 86 84 83 81 79 77 74 71 68 66 62 59 57 55 51 46 42 37 35 32 30 28 27 27 26 25 26 26 26 24 23 21 19 18 19
77 77 76 76 76 75 75 75 76 76 76 76 76 76 74 73 72 73 75 79 82 86 88 89 89 88 87 86 84 81 79 79 78 77 75 73 72 72 72 74 76 78 81 83 85 87 88 89 88 87 85 83 81 79 77 75 72 69 66 63 59 57 54 51 47 43 39 35 32 30 28 27 27 26 26 26 26 26 25 24 22 19 17 17 19
77 77 76 76 76 76 76 77 77 78 79 77 76 74 73 72 73 76 81 85 88 90 89 88 87 87 86 85 82 80 79 78 76 74 73 72 72 73 75 77 79 82 85 86 88 89 89 89 87 85 83 81 79 77 74 72 69 66 63 59 56 53 51 48 44 40 38 34 30 28 27 26 26 26 26 26 26 26 25 23 21 17 16 17 17
78 77 77 77 77 77 77 77 77 77 77 75 73 73 74 77 80 84 87 88 87 86 85 85 87 87 85 83 81 79 77 75 74 73 73 74 74 76 78 80 83 86 88 89 90 90 89 87 85 83 81 79 76 73 70 68 65 62 59 56 53 51 48 45 41 38 36 33 29 27 26 26 26 27 26 27 27 26 25 23 20 17 16 16 16
78 78 78 78 78 78 78 78 78 78 77 75 75 77 80 83 86 88 88 86 85 85 86 88 88 86 83 80 78 76 74 74 73 74 74 75 76 79 81 84 87 89 90 91 90 88 85 83 82 80 78 75 72 69 66 64 61 58 56 53 51 48 45 43 39 36 35 32 29 26 26 27 27 27 27 28 28 27 25 23 19 17 16 16 16
79 78 78 78 77 77 78 78 78 78 79 79 80 83 85 87 88 88 88 88 88 89 90 89 87 83 79 76 74 73 74 74 75 75 76 77 80 82 85 87 89 90 90 88 85 83 81 80 79 76 73 70 68 65 62 59 57 55 52 50 48 46 44 41 38 35 33 32 28 26 26 27 27 28 29 29 29 28 26 23 20 17 16 16 16
79 78 75 72 71 73 76 77 78 79 81 84 86 88 89 90 90 90 90 91 91 90 89 85 81 77 74 73 73 74 76 76 77 77 79 81 84 86 88 89 89 87 84 81 80 79 78 76 73 71 68 66 64 61 58 56 53 51 49 47 45 43 42 39 37 34 33 31 28 25 26 27 28 29 30 30 30 29 27 24 21 19 17 16 15
79 77 72 68 69 72 76 79 81 84 87 89 90 91 92 92 92 91 91 90 89 86 82 78 74 73 73 75 76 77 78 79 80 82 84 86 87 89 89 87 84 80 78 77 77 75 73 70 68 67 65 62 60 57 55 52 50 48 46 44 43 41 40 38 35 33 32 31 28 25 26 28 29 30 31 32 31 31 28 25 22 20 18 16 16
80 78 76 76 77 79 81 84 88 91 92 92 92 93 93 92 91 90 89 86 83 79 75 73 73 74 76 77 79 80 82 83 84 85 87 88 88 87 84 79 76 76 76 75 73 70 68 66 64 63 61 58 56 54 52 50 47 46 44 42 41 40 38 36 34 32 31 30 28 25 26 28 30 31 33 33 34 32 30 27 24 22 19 18 18
81 80 79 80 82 83 84 86 89 91 92 92 92 91 91 90 89 87 83 80 76 73 73 74 75 77 79 80 82 84 85 86 87 87 88 87 84 80 76 73 73 73 72 70 67 65 64 62 61 59 57 55 53 51 49 47 45 43 42 40 39 38 36 34 33 31 30 29 28 26 26 28 31 33 34 36 36 34 32 29 26 24 21 20 20
82 81 80 80 81 82 84 86 87 89 89 89 89 89 88 86 84 80 77 75 75 75 76 77 78 80 82 84 85 86 87 88 88 87 85 81 77 73 71 71 71 69 66 64 63 62 61 59 57 54 53 51 50 49 47 45 42 40 39 38 36 35 34 33 32 31 30 29 28 27 26 28 32 34 36 38 38 36 34 31 29 27 24 23 23
83 82 82 82 83 83 84 85 86 86 86 86 85 84 82 79 77 76 76 76 77 78 79 80 82 83 85 87 88 88 88 88 87 84 80 76 72 70 69 68 66 64 62 61 60 59 58 55 52 50 49 48 48 47 45 43 40 38 37 35 34 34 33 32 32 31 30 29 29 28 28 29 32 35 38 39 39 38 36 34 32 30 28 26 26
82 82 83 83 83 83 83 83 83 83 83 82 80 78 76 76 77 77 78 79 80 82 83 85 86 87 88 89 89 89 89 87 85 81 77 74 72 70 67 64 62 60 59 58 57 56 54 51 49 47 46 45 45 44 43 41 39 37 35 34 33 32 32 31 31 31 30 30 30 30 29 29 32 36 39 41 40 40 38 36 34 33 31 29 29
81 81 81 82 81 81 79 79 80 80 79 78 77 76 77 78 79 80 82 83 84 85 87 88 88 88 89 90 90 88 87 84 80 77 74 73 71 68 64 61 59 57 56 55 54 52 50 49 47 46 44 43 43 42 40 39 37 35 34 33 32 31 30 30 30 30 29 29 29 30 30 30 32 36 40 42 42 42 41 38 37 36 34 32 32
78 78 78 78 77 76 75 76 77 77 77 78 78 79 81 82 83 84 85 86 87 88 89 90 90 89 89 89 87 84 81 77 75 74 73 70 66 63 60 58 56 54 53 52 50 49 48 48 46 44 43 42 41 40 38 37 35 34 33 32 31 30 29 28 28 28 27 27 27 29 30 30 31 35 40 43 44 43 43 41 40 39 37 35 35
74 74 74 75 74 74 75 76 77 78 80 81 82 83 85 86 87 88 88 89 89 90 90 90 89 89 87 85 82 78 75 73 73 72 69 65 61 58 56 55 53 51 50 48 48 48 47 46 45 43 42 40 39 38 37 35 34 33 31 30 29 28 27 26 26 26 25 25 25 26 28 29 30 33 39 44 45 45 44 43 42 41 40 38 38
72 73 74 74 75 77 78 80 81 82 83 85 86 87 88 89 90 90 90 91 90 90 90 89 87 84 82 79 76 74 72 71 69 66 62 58 57 56 54 51 49 47 46 46 46 46 46 45 43 42 40 39 37 36 35 34 33 31 30 29 27 26 25 24 24 23 23 22 23 24 26 27 29 32 37 43 46 47 46 46 44 44 43 41 41
74 75 76 77 78 80 81 83 85 86 88 89 90 90 91 91 91 91 91 90 89 88 86 84 81 77 74 73 73 71 69 66 63 59 56 55 54 53 51 48 46 45 44 44 44 44 44 43 41 40 39 38 36 35 34 33 31 30 29 27 26 25 24 23 22 22 21 20 21 21 23 25 28 30 35 41 46 48 48 47 47 46 45 44 44
77 78 80 81 82 83 85 87 88 90 91 91 92 92 92 91 91 89 88 87 85 82 79 76 73 70 68 69 68 66 62 59 56 54 53 52 51 49 47 45 44 43 43 43 43 42 41 40 39 38 37 36 35 34 33 31 30 29 28 27 25 24 24 22 22 21 20 19 19 19 20 23 26 28 32 38 44 48 50 49 49 49 48 47 46
81 82 84 85 86 88 89 90 90 91 91 91 91 90 89 88 86 84 82 80 77 74 71 69 68 67 65 64 61 58 56 54 52 51 50 49 47 46 45 44 43 42 42 42 41 41 39 38 37 36 35 35 34 33 31 30 29 28 27 26 24 24 23 23 22 21 20 20 19 18 18 19 22 26 30 34 41 47 50 51 50 50 50 49 48
84 85 87 88 88 89 90 90 90 89 89 87 86 85 82 80 78 76 73 71 68 67 65 63 62 61 59 56 54 53 52 51 50 48 47 46 45 44 44 43 42 41 41 41 40 39 38 36 35 34 34 33 32 31 30 29 28 27 26 25 24 23 23 23 22 21 21 20 19 18 17 17 19 22 27 32 37 44 49 52 52 52 51 51 50
87 87 88 88 88 88 88 87 86 84 82 80 78 76 73 71 69 67 65 63 61 60 58 57 55 53 52 51 50 50 49 48 46 45 45 44 43 42 42 41 41 40 39 39 39 38 37 36 35 34 34 33 31 30 29 28 27 26 26 24 24 23 23 23 22 21 21 20 19 18 18 18 18 20 24 29 34 40 47 52 54 53 53 53 52
Wind_Direction
302 302 303 305 307 308 307 306 308 310 311 313 314 314 313 312 312 312 312 312 310 307 304 303 304 302 297 294 294 295 297 298 298 299 300 300 302 304 306 308 309 310 310 312 312 312 310 309 308 307 307 307 307 307 308 309 311 313 316 317 317 316 315 315 315 316 316 317 316 316 316 316 313 309 306 302 296 287 275 263 258 255 250 243 240
300 300 302 304 305 305 304 305 307 310 311 312 312 312 311 310 310 310 310 309 309 308 306 304 304 303 298 295 294 292 293 294 295 297 299 301 303 305 306 308 309 310 310 311 311 309 307 306 305 304 303 304 305 306 307 308 311 313 315 316 316 314 314 314 315 316 317 316 316 316 316 315 313 310 305 302 296 287 275 263 256 255 252 244 239
299 299 301 302 303 303 304 305 307 309 310 310 310 309 309 308 308 309 309 309 309 310 308 305 304 303 301 299 296 293 293 296 297 297 299 301 302 303 305 306 307 308 308 307 306 305 304 303 303 302 302 303 305 306 308 310 312 314 315 315 315 314 314 315 316 316 316 316 315 315 315 313 313 310 305 301 295 285 273 263 256 253 253 247 239
297 299 300 301 301 302 303 305 306 307 308 308 307 308 308 308 308 308 307 307 310 311 309 306 304 303 301 298 296 296 299 301 299 298 298 299 300 301 302 303 304 305 306 306 306 305 304 303 302 302 302 305 307 308 310 311 313 314 314 314 314 314 315 315 315 315 315 316 315 314 313 312 311 310 305 300 292 281 269 262 259 255 252 249 241
296 297 299 299 300 301 302 303 304 305 306 307 307 307 308 307 307 307 306 305 307 309 308 305 301 298 296 295 296 299 302 301 299 299 299 300 300 300 301 302 304 307 307 307 306 305 303 302 301 302 304 306 308 309 311 311 313 313 314 314 314 314 314 314 314 314 315 315 314 313 312 311 310 308 304 299 290 279 267 260 259 257 253 249 243
295 296 297 298 299 300 301 302 303 305 305 306 306 305 306 307 306 306 305 304 306 308 307 302 296 294 292 293 295 298 299 299 299 300 301 302 302 302 303 304 306 307 306 305 304 302 301 301 302 303 305 308 309 310 311 312 313 314 314 314 313 313 313 314 314 313 313 313 313 312 311 310 310 307 303 297 289 280 271 262 258 257 254 248 242
294 295 297 298 298 300 301 302 303 304 305 306 304 303 306 307 305 304 303 303 305 306 304 297 291 289 290 291 291 291 293 295 297 299 300 301 301 302 303 303 304 304 304 303 303 303 303 303 304 305 307 308 310 311 312 313 313 313 313 313 313 313 313 313 312 312 312 312 312 312 311 311 309 306 302 297 290 282 274 267 260 256 252 248 242
294 296 297 297 298 299 300 302 303 304 305 305 303 305 306 304 302 302 301 301 303 303 298 290 286 288 291 291 289 288 290 292 294 296 297 298 299 300 300 301 301 301 302 303 304 304 305 306 306 307 308 309 310 311 312 313 313 312 312 312 312 311 311 311 311 311 311 311 312 311 312 311 308 305 302 297 293 285 274 266 262 257 251 246 241
294 296 296 297 298 299 301 302 302 303 304 304 306 308 306 301 300 301 301 301 301 298 290 284 285 290 292 291 289 287 289 291 292 293 295 296 298 298 299 299 298 299 300 302 303 304 305 306 307 307 308 309 310 310 311 312 312 311 310 310 310 310 310 310 310 310 310 311 311 311 312 311 308 306 303 299 294 288 277 266 261 257 251 244 239
294 295 296 297 299 300 301 301 301 302 302 303 306 308 302 298 299 300 300 301 300 295 289 286 286 289 289 288 287 287 289 291 292 293 295 297 298 298 298 298 298 298 300 301 303 304 305 306 307 307 308 308 309 310 311 310 309 308 308 308 308 308 308 309 310 310 310 311 311 312 313 312 310 307 304 301 296 288 279 268 260 255 249 243 238
294 295 296 298 299 300 301 300 300 300 300 301 303 305 303 300 298 298 299 300 297 291 287 286 286 285 285 285 285 287 290 291 292 294 296 297 298 299 299 299 300 300 301 302 304 305 305 306 306 307 307 308 309 309 309 307 306 306 306 306 306 307 308 309 310 310 310 311 312 313 314 313 311 308 305 302 297 289 279 270 261 254 248 243 238
293 294 296 298 299 299 299 298 298 298 298 299 300 302 302 297 293 294 295 296 293 286 282 284 284 283 284 284 284 287 289 291 292 294 296 297 298 299 299 300 301 301 302 303 304 304 305 306 306 307 307 308 308 307 306 305 305 305 305 306 307 308 309 310 310 310 311 312 313 314 314 313 311 309 305 302 298 290 279 270 261 253 247 243 239
292 293 296 297 297 297 297 297 298 297 297 298 298 297 297 290 287 288 286 284 285 282 279 281 281 280 282 283 285 287 289 290 292 294 295 296 297 298 298 299 300 301 301 302 303 304 306 307 308 308 307 307 306 305 305 305 305 305 306 308 309 309 310 310 310 310 311 313 314 315 314 313 312 310 306 302 298 291 281 271 261 252 246 242 240
291 293 294 295 294 295 295 296 296 296 297 298 297 296 295 291 288 285 279 276 276 275 275 278 279 281 283 284 285 287 289 291 292 293 294 295 296 296 297 298 299 300 301 302 303 305 307 308 308 308 307 306 306 306 306 306 306 307 308 309 310 310 310 310 310 311 312 313 314 315 315 314 313 311 307 303 298 292 283 273 262 251 245 242 239
291 292 292 292 292 293 295 295 295 296 297 298 297 296 295 292 288 281 276 274 275 276 277 278 279 280 282 283 285 287 289 290 290 291 292 293 294 295 297 298 299 300 301 302 302 304 306 307 308 308 307 306 306 306 307 307 308 308 309 309 310 310 310 310 311 311 312 313 315 316 315 314 313 312 308 304 298 292 284 274 263 252 244 242 239
290 291 291 291 292 293 295 295 296 297 298 298 297 296 295 293 289 283 279 277 277 277 277 277 278 280 281 283 285 286 287 287 288 289 291 292 294 295 297 298 299 300 301 301 301 302 304 305 307 307 307 307 307 307 307 308 308 308 309 309 309 309 310 310 311 312 313 314 315 316 315 314 313 312 309 303 297 291 284 273 263 254 245 241 239
290 290 290 291 292 294 295 296 296 297 297 296 296 296 296 294 291 288 285 281 278 276 276 277 278 280 281 282 284 285 286 287 289 290 292 293 294 296 298 299 300 300 300 300 300 301 301 302 305 306 306 306 306 306 307 307 307 308 308 308 308 309 310 311 311 312 313 314 316 316 315 313 313 311 307 302 295 289 282 272 262 254 247 242 240
290 291 291 292 293 294 295 295 295 295 295 295 295 296 295 294 292 290 287 284 280 278 278 277 278 279 280 282 284 286 288 290 291 292 292 293 295 296 298 299 299 299 299 299 299 299 300 302 304 305 305 305 306 306 307 307 307 307 307 308 308 310 311 311 311 312 313 314 315 315 313 313 313 310 305 299 292 286 279 271 262 253 247 244 240
290 291 292 292 293 293 293 293 294 294 294 294 295 295 294 293 291 289 287 284 282 280 280 279 280 281 283 284 286 287 290 293 294 294 294 295 295 296 298 299 298 298 299 300 302 302 303 303 303 304 304 304 305 306 306 306 306 306 307 309 309 310 310 311 311 312 312 313 314 313 311 312 311 306 301 295 289 282 275 268 263 255 248 244 240
290 291 291 291 291 292 292 293 293 294 294 294 295 295 293 292 290 288 287 285 283 282 282 282 283 284 285 286 287 289 293 297 297 296 297 297 296 297 299 299 298 300 302 303 304 303 302 302 302 302 303 304 304 304 304 305 306 307 309 309 310 310 310 310 311 311 311 312 312 311 310 311 308 302 296 291 285 279 271 265 261 256 249 245 240
289 289 290 290 291 292 293 294 294 294 294 295 295 294 292 291 290 289 288 286 285 284 284 285 286 286 287 288 289 293 297 299 299 299 297 295 295 297 298 299 299 301 302 301 301 301 301 301 301 302 303 303 303 303 304 306 307 308 309 309 309 309 309 310 310 310 310 311 310 309 309 308 305 298 291 286 281 275 268 261 257 254 249 245 242
287 289 290 291 292 293 294 294 294 294 295 294 293 293 292 291 290 289 287 286 285 285 287 289 292 293 293 293 294 298 301 302 301 300 297 295 296 297 296 295 296 297 297 297 298 299 300 300 301 301 302 302 304 305 306 308 308 309 309 309 309 309 309 309 309 308 309 309 308 307 307 305 300 294 287 281 277 272 265 258 254 252 248 244 242
288 289 290 291 292 293 294 294 295 295 295 293 292 292 291 290 288 287 287 288 290 291 294 297 299 300 299 298 299 302 304 302 301 300 299 298 297 295 292 291 292 293 295 296 298 299 299 300 301 302 303 305 306 307 308 308 308 308 309 309 309 309 308 308 308 307 307 307 307 305 304 301 296 290 284 277 271 267 262 256 252 249 247 242 240
289 290 291 292 292 293 294 295 295 293 291 290 291 291 291 291 291 292 294 295 296 297 298 299 300 300 300 299 299 300 299 297 298 299 298 296 294 292 291 291 292 294 296 297 298 299 300 301 302 304 305 307 307 308 308 308 308 308 308 309 309 308 308 307 306 305 305 305 304 303 300 297 292 287 280 273 267 262 258 254 250 246 245 243 239
289 290 291 291 292 293 293 293 291 290 290 291 293 294 295 296 297 297 298 298 298 298 297 298 298 299 299 299 299 298 297 296 297 297 296 296 295 294 294 295 296 298 299 299 299 300 301 303 305 306 307 307 308 308 308 307 307 308 308 308 308 307 307 305 304 303 303 302 301 299 297 293 288 283 276 269 263 258 253 251 248 245 244 245 241
289 290 290 290 291 291 291 291 290 290 292 295 296 297 298 298 298 298 298 297 296 296 295 296 297 299 301 301 301 300 299 299 299 299 299 298 298 298 298 299 300 300 300 299 301 303 305 306 307 307 307 308 308 307 307 307 307 307 307 307 307 306 305 303 302 302 301 300 298 296 293 289 285 279 272 264 259 254 250 248 246 243 243 245 244
289 289 290 290 290 291 291 291 291 292 294 296 298 298 297 297 296 296 296 295 294 295 296 297 299 301 303 303 303 303 303 302 302 302 301 301 301 301 301 301 300 300 301 302 304 306 307 307 307 307 307 307 307 306 306 306 306 306 306 306 305 305 303 302 301 301 300 298 296 293 290 286 281 274 266 259 253 249 247 246 245 243 242 243 244
288 289 290 290 290 290 291 291 292 293 295 296 297 297 296 296 296 296 296 296 297 299 300 301 302 303 303 304 305 306 306 305 304 303 303 302 302 301 301 301 301 302 304 306 307 307 307 307 307 307 307 306 306 306 306 306 305 305 305 305 305 305 304 302 302 300 299 297 294 290 287 283 276 269 260 253 247 244 243 244 245 246 245 244 246
288 289 290 290 290 291 291 292 293 294 294 295 295 296 296 296 297 298 299 301 303 303 303 303 302 303 303 304 306 306 306 304 303 303 302 302 301 302 302 303 304 305 306 307 307 307 307 307 306 306 306 306 306 306 306 306 306 305 305 306 306 305 304 303 302 300 298 295 290 287 284 278 271 263 255 247 241 239 239 240 243 247 248 248 251
289 289 290 290 291 291 292 292 292 293 293 294 295 296 297 298 300 302 304 305 305 303 302 301 301 302 303 304 305 305 304 303 303 302 302 302 303 304 305 306 306 307 307 307 307 307 307 307 306 306 306 306 307 307 306 306 306 305 306 306 305 304 303 302 300 298 295 291 286 284 280 273 265 258 250 242 235 233 234 237 240 245 248 252 255
288 289 289 290 290 290 290 291 291 292 293 294 295 297 299 301 303 303 303 302 300 299 299 299 300 301 303 304 304 304 303 303 303 303 303 304 305 305 306 306 307 307 306 306 307 307 307 307 306 306 306 307 307 307 306 305 305 305 305 304 303 302 301 300 298 295 292 288 284 281 276 268 260 252 244 237 230 227 230 235 239 243 249 255 256
288 289 289 290 290 290 290 291 291 292 292 293 296 299 301 301 299 298 297 297 297 297 297 298 300 302 303 303 304 304 303 303 303 304 304 305 305 306 306 306 306 306 306 307 307 307 307 306 306 306 306 306 306 305 304 304 303 303 303 302 301 300 299 297 295 292 289 286 283 278 272 263 254 246 238 231 225 223 226 232 237 241 248 253 255
289 289 290 290 290 290 290 290 291 292 293 295 297 298 297 295 293 293 295 296 297 298 298 299 301 303 303 304 304 303 303 303 303 304 305 305 305 305 306 305 305 305 306 306 306 306 305 305 305 305 305 305 304 303 303 302 302 302 301 300 299 298 297 295 293 290 287 284 281 275 267 257 248 240 232 225 221 220 223 228 233 238 244 247 251
289 289 289 289 289 290 290 291 292 293 294 294 293 292 292 292 293 294 295 297 298 298 299 301 303 304 304 303 303 302 302 303 304 305 305 305 305 304 304 304 304 304 305 305 304 304 304 304 304 304 304 304 303 302 302 302 302 301 300 299 298 297 295 292 290 288 285 282 279 271 262 252 244 235 227 221 218 217 220 224 228 232 238 242 248
288 289 290 290 291 291 291 291 291 290 290 290 290 291 293 294 294 295 296 297 298 299 301 302 303 303 302 302 302 302 303 304 305 305 304 304 303 303 303 303 303 303 303 303 303 302 303 303 303 303 303 303 303 303 303 303 302 301 299 298 297 295 293 291 289 286 283 280 276 267 257 248 239 230 223 218 215 215 217 220 222 226 232 239 244
288 289 291 291 290 290 290 289 288 288 289 290 291 292 293 294 294 295 296 297 298 300 301 301 302 301 302 302 302 303 303 304 304 303 302 302 302 301 302 302 302 302 302 302 301 302 302 303 303 303 303 304 304 304 304 303 302 300 299 297 295 293 291 290 288 285 281 277 271 262 252 244 235 227 219 214 212 212 214 216 216 221 229 234 236
288 289 288 286 285 285 285 286 286 288 289 291 292 292 292 293 294 295 296 297 299 300 300 300 300 301 301 302 302 303 303 302 301 301 301 301 301 301 302 302 302 302 301 301 301 302 302 303 303 304 304 304 304 304 304 303 301 299 298 296 294 292 290 288 287 284 280 274 267 257 248 240 232 224 216 212 210 210 211 211 211 216 224 227 224
287 287 285 283 283 283 283 284 285 287 289 290 291 292 292 293 294 295 296 297 298 299 299 299 299 300 300 301 301 301 300 300 300 300 300 300 301 301 302 302 301 300 300 300 301 302 303 304 304 304 304 304 304 303 303 301 300 299 297 295 293 290 289 287 285 282 277 271 264 254 244 238 231 222 214 210 209 209 208 207 207 212 218 219 216
286 285 285 284 284 283 283 284 285 286 288 289 290 291 292 293 294 295 297 297 297 297 297 298 298 299 299 299 299 299 299 299 300 300 300 300 301 302 302 301 300 299 299 300 301 303 304 304 304 304 304 304 303 303 302 301 299 298 296 294 292 290 287 285 283 279 274 267 261 252 243 236 230 222 213 209 209 208 206 204 204 208 213 214 210
285 285 285 284 284 283 283 284 285 287 288 288 289 290 292 293 294 295 296 296 296 296 296 297 298 298 298 298 298 298 298 299 299 300 301 302 303 302 301 300 299 299 300 302 303 303 303 303 303 303 304 304 303 303 302 301 299 297 295 292 290 288 286 283 280 277 271 265 258 251 242 235 230 222 214 210 209 208 205 202 201 205 210 209 204
286 286 285 285 284 284 285 286 286 287 288 289 290 291 293 294 294 294 295 295 295 296 296 297 297 297 297 298 298 299 299 300 301 302 303 304 303 302 301 300 300 301 302 303 303 303 302 302 302 303 303 303 303 303 302 301 299 297 295 292 290 287 284 282 278 275 270 264 257 251 243 235 229 223 215 210 209 208 205 202 199 202 206 206 200
286 286 286 286 286 287 287 288 288 288 289 291 292 293 293 293 293 294 294 294 295 295 296 297 297 298 298 298 299 300 300 302 303 303 303 304 304 303 301 301 301 301 302 302 302 301 301 301 302 303 303 303 303 303 302 302 300 298 296 293 291 288 285 282 278 274 270 264 258 252 244 235 228 223 217 212 209 207 206 202 199 200 204 204 199
286 286 286 287 288 289 289 290 290 290 291 292 292 292 292 292 293 293 294 294 295 295 296 297 297 298 298 298 299 300 301 302 302 302 302 303 303 302 301 300 301 302 302 301 301 300 300 301 302 303 304 303 302 302 302 302 300 298 296 294 292 289 286 283 278 274 270 265 258 252 245 236 228 223 217 213 210 207 206 204 201 200 202 204 200
287 287 287 288 289 290 290 289 289 290 291 291 291 291 291 292 292 293 294 294 295 295 296 297 297 297 297 298 299 300 300 300 300 301 301 301 301 299 299 300 301 302 301 300 300 300 300 300 301 302 303 302 301 301 302 301 299 298 296 294 292 289 286 282 278 274 270 265 258 252 246 237 229 223 218 214 211 208 206 205 203 200 201 203 201
287 287 288 288 289 289 289 289 289 290 290 290 291 291 292 292 293 293 294 295 295 295 296 296 296 297 297 297 298 299 299 299 299 300 300 299 299 298 299 300 301 301 300 299 299 299 299 299 300 300 301 300 300 300 300 299 298 297 296 294 292 288 284 281 278 274 271 265 259 253 247 239 230 224 219 214 212 209 207 205 204 202 201 202 202
287 287 287 288 288 289 289 289 289 290 290 290 291 291 292 292 293 293 294 294 295 295 295 295 295 296 296 296 296 297 297 298 298 298 298 298 298 299 300 300 301 300 298 297 297 297 296 297 298 298 299 299 299 299 299 298 298 297 295 293 290 286 282 280 278 275 273 267 260 254 248 240 232 226 220 216 213 210 208 206 205 204 202 202 202
287 287 287 288 288 288 288 289 289 289 290 290 291 292 292 293 293 293 293 293 293 293 293 293 294 294 293 293 294 295 296 297 297 297 298 298 299 300 300 301 300 299 297 296 296 295 295 295 296 297 297 298 298 298 297 297 296 295 293 291 288 284 281 279 278 276 274 269 262 254 248 241 234 227 222 218 214 212 210 208 206 205 204 203 202
286 287 287 287 287 288 288 288 289 289 290 291 291 292 292 292 292 292 291 291 291 292 292 292 292 292 291 291 293 294 295 296 296 297 298 299 300 300 300 300 299 298 297 296 295 294 294 295 295 295 296 296 295 295 295 295 294 293 291 288 285 282 280 279 277 275 274 271 265 258 251 243 236 230 224 220 216 213 211 209 208 206 205 204 204
286 287 287 288 288 288 288 289 289 289 290 290 290 290 290 290 289 289 289 289 290 290 289 289 289 290 290 291 293 294 295 296 297 298 299 300 300 300 301 301 300 299 298 296 295 294 294 294 294 294 294 293 293 293 293 292 292 291 288 285 282 280 278 276 276 275 273 272 268 263 256 248 241 235 228 223 219 215 213 211 210 208 207 206 205
287 287 287 287 288 288 288 289 289 289 289 289 288 288 288 287 287 287 287 287 287 287 287 288 288 289 290 291 293 294 295 297 298 299 300 301 301 302 302 302 301 300 299 297 296 295 294 294 294 293 292 292 291 291 291 291 290 289 287 284 280 277 275 273 273 272 271 270 269 267 263 256 247 239 233 227 222 218 215 213 211 210 208 207 207
287 287 288 288 288 288 288 288 288 288 288 287 286 286 286 285 285 285 285 285 285 285 286 287 288 289 290 291 293 295 296 298 299 300 301 301 302 302 302 302 301 301 300 298 297 296 295 295 294 293 292 292 292 291 291 291 290 289 287 283 279 275 272 270 269 269 268 268 268 267 265 261 254 245 237 231 226 221 218 215 213 212 211 209 209
Height
10933 10931 10930 10929 10928 10927 10925 10923 10921 10920 10918 10916 10914 10911 10909 10907 10904 10901 10898 10896 10894 10891 10889 10887 10884 10881 10878 10874 10871 10869 10867 10864 10862 10859 10857 10855 10852 10850 10847 10845 10842 10840 10838 10835 10832 10829 10827 10825 10824 10821 10818 10816 10814 10812 10809 10806 10803 10800 10797 10795 10792 10789 10787 10784 10781 10774 10765 10760 10757 10753 10749 10748 10745 10743 10743 10742 10740 10740 10739 10738 10737 10737 10739 10741 10743
10928 10927 10926 10925 10924 10922 10920 10918 10917 10915 10914 10912 10909 10907 10905 10902 10899 10895 10893 10890 10889 10887 10884 10881 10879 10876 10872 10869 10866 10864 10861 10859 10856 10854 10851 10849 10846 10843 10840 10837 10835 10833 10830 10828 10825 10823 10820 10819 10818 10816 10812 10810 10807 10805 10802 10798 10795 10791 10788 10786 10783 10779 10777 10774 10770 10766 10760 10751 10746 10742 10738 10735 10732 10730 10731 10731 10728 10726 10725 10725 10725 10725 10726 10728 10730
10923 10922 10921 10921 10919 10917 10915 10913 10912 10911 10909 10907 10905 10903 10901 10897 10894 10891 10888 10884 10882 10881 10878 10874 10871 10869 10866 10864 10861 10858 10855 10853 10851 10848 10845 10843 10840 10837 10834 10831 10828 10826 10824 10822 10820 10817 10815 10813 10811 10808 10805 10802 10799 10796 10793 10789 10785 10782 10778 10776 10773 10769 10765 10762 10759 10756 10752 10745 10737 10732 10727 10723 10720 10717 10717 10718 10717 10714 10711 10711 10713 10714 10713 10715 10718
10918 10917 10917 10916 10914 10912 10911 10909 10908 10906 10905 10902 10900 10898 10896 10892 10889 10886 10883 10879 10875 10874 10872 10868 10865 10862 10860 10858 10855 10852 10849 10848 10846 10843 10840 10837 10834 10831 10828 10825 10823 10820 10817 10815 10812 10810 10807 10805 10803 10800 10797 10793 10790 10787 10783 10780 10776 10772 10769 10765 10762 10758 10754 10751 10748 10745 10741 10736 10729 10722 10717 10713 10709 10705 10704 10705 10703 10701 10700 10699 10699 10700 10701 10702 10706
10913 10913 10912 10911 10909 10908 10906 10905 10903 10902 10900 10897 10894 10892 10889 10886 10883 10880 10878 10875 10871 10868 10866 10863 10860 10857 10854 10852 10849 10846 10843 10841 10839 10836 10833 10830 10828 10825 10822 10819 10817 10813 10810 10808 10805 10802 10800 10797 10795 10792 10788 10784 10780 10777 10774 10771 10767 10762 10758 10754 10751 10747 10744 10740 10737 10734 10730 10725 10719 10713 10707 10702 10698 10693 10691 10691 10690 10688 10688 10688 10687 10686 10687 10690 10694
10909 10908 10907 10906 10904 10903 10902 10900 10898 10896 10894 10891 10888 10886 10884 10880 10877 10875 10872 10868 10865 10862 10860 10857 10855 10852 10848 10845 10843 10841 10838 10835 10833 10830 10827 10824 10822 10819 10816 10813 10810 10807 10804 10801 10799 10796 10793 10790 10787 10783 10780 10775 10771 10768 10764 10761 10757 10752 10747 10744 10740 10737 10733 10729 10726 10722 10719 10714 10708 10703 10697 10691 10686 10682 10678 10678 10678 10676 10676 10676 10675 10673 10675 10679 10682
10904 10903 10902 10900 10899 10897 10896 10895 10894 10891 10889 10885 10882 10881 10879 10875 10871 10869 10867 10863 10859 10856 10853 10851 10849 10846 10843 10841 10838 10835 10833 10830 10828 10825 10822 10819 10816 10813 10810 10807 10804 10801 10798 10795 10792 10790 10786 10782 10778 10774 10771 10767 10762 10759 10755 10751 10747 10742 10737 10734 10730 10726 10723 10718 10714 10710 10707 10703 10697 10691 10686 10680 10674 10670 10667 10665 10665 10666 10665 10664 10662 10662 10665 10667 10670
10898 10897 10895 10893 10892 10891 10890 10890 10888 10887 10885 10880 10875 10874 10874 10870 10866 10864 10862 10859 10854 10850 10847 10844 10842 10840 10838 10835 10833 10830 10828 10825 10822 10819 10815 10813 10811 10807 10804 10800 10797 10793 10790 10787 10784 10781 10777 10773 10769 10766 10762 10758 10753 10750 10746 10743 10739 10733 10728 10724 10720 10715 10712 10708 10703 10699 10695 10691 10686 10679 10675 10669 10662 10659 10656 10654 10653 10654 10654 10653 10651 10651 10654 10656 10658
10893 10891 10888 10886 10885 10884 10883 10883 10882 10882 10881 10878 10873 10870 10867 10864 10862 10859 10856 10853 10849 10844 10840 10837 10835 10833 10830 10828 10825 10823 10821 10819 10816 10812 10809 10806 10803 10800 10796 10792 10789 10785 10782 10778 10775 10772 10769 10764 10760 10757 10753 10749 10745 10741 10738 10734 10730 10724 10719 10715 10710 10705 10701 10697 10693 10688 10683 10679 10674 10668 10663 10657 10651 10648 10645 10643 10643 10641 10641 10642 10641 10640 10642 10645 10646
10886 10884 10881 10879 10878 10877 10877 10877 10876 10876 10876 10875 10874 10872 10865 10858 10854 10853 10850 10846 10842 10838 10833 10830 10827 10824 10822 10819 10817 10815 10814 10812 10809 10805 10802 10799 10795 10791 10788 10784 10780 10776 10773 10769 10766 10763 10760 10756 10752 10748 10744 10740 10736 10733 10729 10726 10721 10716 10711 10707 10702 10696 10691 10687 10682 10677 10672 10668 10663 10657 10651 10646 10641 10637 10633 10633 10633 10631 10630 10631 10630 10630 10631 10633 10635
10879 10877 10875 10873 10871 10870 10870 10869 10869 10869 10869 10870 10872 10871 10866 10856 10847 10845 10844 10840 10834 10831 10827 10823 10820 10817 10814 10812 10809 10807 10805 10803 10801 10797 10794 10791 10787 10782 10779 10775 10771 10767 10763 10760 10757 10754 10751 10747 10743 10739 10734 10731 10727 10724 10721 10716 10711 10707 10703 10699 10694 10689 10683 10678 10671 10665 10661 10658 10652 10646 10641 10635 10631 10626 10622 10622 10622 10620 10619 10620 10619 10620 10621 10623 10625
10872 10870 10869 10867 10865 10863 10863 10862 10861 10861 10862 10864 10865 10866 10865 10858 10847 10841 10839 10834 10827 10824 10820 10817 10814 10810 10807 10805 10802 10800 10797 10794 10791 10787 10784 10781 10777 10774 10770 10766 10762 10757 10754 10751 10747 10744 10742 10738 10734 10729 10725 10722 10719 10716 10712 10706 10701 10697 10693 10689 10684 10678 10673 10668 10662 10656 10651 10647 10642 10636 10631 10626 10621 10616 10612 10611 10611 10610 10609 10609 10609 10610 10612 10614 10615
10866 10865 10864 10862 10860 10857 10856 10854 10853 10853 10854 10856 10857 10858 10859 10857 10850 10843 10837 10828 10821 10817 10814 10811 10807 10804 10800 10798 10795 10793 10790 10786 10782 10778 10775 10772 10769 10766 10762 10758 10754 10750 10746 10742 10739 10736 10733 10729 10725 10721 10716 10713 10710 10707 10703 10697 10691 10687 10683 10678 10672 10667 10661 10656 10651 10645 10640 10636 10633 10627 10622 10615 10611 10607 10602 10600 10601 10600 10599 10599 10600 10602 10604 10605 10605
10861 10860 10859 10857 10854 10851 10849 10847 10845 10845 10846 10848 10849 10848 10849 10849 10847 10842 10833 10822 10814 10812 10809 10806 10802 10798 10794 10791 10788 10785 10782 10778 10774 10770 10767 10765 10762 10758 10754 10751 10747 10743 10739 10735 10732 10728 10725 10721 10717 10712 10708 10704 10700 10697 10693 10688 10682 10677 10671 10666 10660 10654 10649 10644 10639 10634 10629 10626 10622 10618 10612 10606 10601 10598 10594 10591 10591 10590 10590 10590 10591 10595 10596 10594 10595
10855 10855 10853 10851 10848 10845 10843 10840 10837 10836 10837 10839 10839 10838 10837 10837 10838 10835 10827 10818 10813 10808 10804 10800 10795 10792 10789 10786 10781 10777 10773 10770 10766 10763 10760 10758 10755 10751 10746 10743 10739 10735 10731 10728 10725 10721 10718 10713 10709 10704 10699 10694 10691 10688 10684 10678 10672 10666 10660 10655 10649 10643 10638 10633 10628 10624 10619 10615 10611 10607 10602 10597 10592 10588 10586 10583 10581 10581 10582 10581 10582 10586 10587 10585 10586
10848 10848 10846 10844 10842 10839 10836 10833 10829 10827 10828 10829 10829 10828 10826 10825 10825 10824 10819 10815 10810 10805 10799 10794 10790 10787 10784 10780 10774 10769 10765 10762 10759 10756 10754 10751 10748 10743 10738 10735 10731 10727 10723 10720 10717 10714 10710 10705 10701 10696 10690 10686 10681 10677 10673 10667 10661 10655 10649 10643 10637 10632 10627 10621 10616 10613 10609 10605 10601 10597 10592 10588 10583 10579 10578 10576 10573 10572 10573 10573 10574 10578 10579 10577 10579
10840 10840 10838 10837 10835 10833 10830 10826 10822 10819 10819 10819 10820 10818 10815 10813 10813 10812 10810 10807 10803 10798 10793 10789 10785 10782 10778 10774 10768 10763 10759 10755 10751 10749 10747 10744 10740 10736 10731 10726 10722 10718 10714 10711 10708 10705 10701 10697 10692 10687 10681 10676 10672 10667 10663 10657 10651 10645 10638 10632 10626 10621 10616 10611 10606 10602 10598 10595 10592 10588 10584 10580 10575 10571 10569 10568 10566 10565 10565 10565 10567 10570 10570 10571 10573
10832 10831 10830 10829 10828 10826 10824 10820 10816 10813 10810 10810 10811 10811 10807 10803 10802 10801 10799 10796 10793 10789 10786 10782 10779 10776 10772 10767 10762 10757 10752 10747 10742 10739 10737 10736 10732 10728 10724 10718 10713 10709 10705 10702 10699 10696 10692 10687 10682 10678 10672 10667 10662 10657 10652 10646 10640 10634 10628 10622 10616 10610 10605 10600 10595 10591 10587 10585 10582 10580 10577 10573 10569 10564 10562 10560 10559 10559 10559 10558 10560 10563 10563 10565 10567
10825 10824 10822 10821 10820 10819 10817 10814 10810 10806 10802 10800 10802 10803 10799 10795 10792 10791 10789 10786 10784 10781 10777 10774 10771 10768 10764 10759 10754 10750 10744 10738 10732 10728 10727 10726 10723 10720 10716 10709 10703 10699 10695 10692 10688 10684 10680 10676 10672 10668 10663 10657 10652 10647 10641 10635 10630 10624 10619 10613 10606 10600 10595 10590 10585 10581 10577 10575 10573 10571 10569 10566 10563 10558 10555 10553 10552 10552 10553 10552 10552 10555 10557 10559 10561
10818 10816 10814 10813 10812 10811 10809 10806 10802 10799 10794 10791 10792 10793 10790 10786 10783 10781 10779 10776 10774 10772 10769 10766 10763 10759 10755 10750 10745 10741 10735 10728 10721 10718 10718 10716 10714 10714 10710 10699 10691 10690 10686 10681 10678 10673 10669 10665 10661 10658 10653 10648 10643 10637 10631 10625 10620 10614 10608 10603 10597 10591 10586 10581 10576 10572 10569 10566 10564 10562 10560 10558 10557 10553 10548 10546 10546 10546 10547 10547 10546 10548 10550 10552 10554
10810 10808 10806 10804 10803 10802 10800 10798 10794 10790 10787 10784 10783 10782 10780 10777 10775 10772 10769 10767 10765 10763 10760 10758 10754 10750 10745 10741 10737 10732 10725 10718 10713 10710 10708 10706 10706 10710 10706 10692 10683 10682 10679 10673 10670 10665 10659 10655 10650 10647 10643 10638 10632 10627 10621 10615 10610 10605 10599 10593 10588 10583 10577 10572 10568 10563 10560 10558 10556 10553 10551 10550 10549 10547 10543 10540 10539 10540 10541 10541 10541 10542 10544 10546 10548
10802 10800 10797 10795 10794 10792 10791 10788 10785 10782 10778 10776 10774 10773 10771 10769 10766 10764 10760 10758 10756 10754 10751 10748 10743 10739 10736 10732 10729 10724 10714 10706 10705 10703 10699 10697 10698 10702 10701 10691 10681 10678 10673 10667 10662 10657 10650 10645 10640 10635 10631 10626 10621 10616 10611 10605 10600 10595 10590 10584 10578 10573 10568 10563 10559 10554 10551 10549 10547 10545 10543 10542 10540 10539 10537 10535 10534 10534 10535 10536 10536 10537 10538 10540 10542
10794 10791 10789 10787 10785 10783 10781 10779 10775 10772 10769 10767 10766 10765 10763 10760 10758 10755 10752 10749 10746 10744 10740 10737 10732 10729 10726 10723 10721 10719 10708 10696 10694 10693 10689 10687 10688 10689 10688 10684 10676 10671 10666 10659 10653 10647 10640 10635 10629 10625 10620 10615 10610 10605 10600 10595 10590 10585 10580 10574 10569 10564 10559 10554 10550 10546 10542 10541 10539 10537 10535 10534 10533 10531 10531 10530 10529 10528 10529 10530 10531 10532 10532 10534 10536
10785 10783 10781 10778 10776 10774 10772 10769 10766 10763 10760 10758 10757 10756 10754 10751 10748 10745 10742 10738 10736 10734 10730 10727 10723 10719 10717 10714 10712 10713 10708 10696 10689 10686 10681 10678 10677 10675 10673 10671 10666 10661 10656 10649 10643 10637 10631 10625 10620 10615 10610 10605 10600 10595 10590 10584 10579 10574 10569 10564 10559 10555 10550 10546 10541 10537 10534 10532 10531 10529 10527 10526 10525 10524 10524 10524 10523 10523 10523 10524 10525 10527 10527 10528 10530
10776 10774 10772 10769 10767 10765 10763 10760 10757 10754 10751 10748 10746 10745 10743 10740 10737 10735 10732 10729 10727 10725 10721 10718 10714 10710 10707 10704 10701 10701 10699 10693 10686 10681 10675 10671 10667 10664 10662 10659 10655 10650 10644 10638 10632 10627 10621 10615 10610 10605 10600 10595 10591 10586 10580 10574 10569 10564 10559 10554 10550 10546 10542 10537 10533 10529 10526 10524 10523 10521 10520 10519 10518 10518 10517 10517 10517 10517 10518 10518 10520 10522 10522 10522 10524
10767 10765 10763 10761 10758 10756 10754 10751 10748 10745 10741 10738 10735 10733 10732 10730 10727 10725 10723 10720 10718 10715 10712 10708 10705 10701 10697 10694 10690 10687 10684 10680 10676 10672 10667 10663 10658 10655 10651 10648 10643 10638 10632 10626 10622 10616 10611 10606 10600 10595 10590 10585 10580 10575 10570 10564 10559 10554 10549 10545 10541 10537 10533 10529 10525 10522 10519 10517 10515 10514 10513 10512 10512 10511 10511 10511 10511 10512 10513 10513 10515 10517 10517 10518 10519
10757 10756 10754 10751 10748 10746 10744 10741 10738 10735 10732 10728 10725 10723 10722 10720 10718 10715 10713 10710 10707 10705 10702 10698 10694 10690 10686 10682 10679 10675 10671 10668 10664 10660 10656 10652 10648 10644 10640 10636 10631 10626 10620 10615 10611 10606 10601 10596 10590 10585 10580 10574 10569 10564 10559 10554 10549 10545 10541 10537 10533 10529 10525 10521 10517 10514 10512 10509 10508 10507 10506 10506 10506 10505 10505 10505 10506 10507 10507 10508 10510 10512 10513 10514 10514
10748 10746 10744 10741 10738 10735 10733 10731 10728 10725 10723 10719 10716 10713 10711 10709 10707 10705 10702 10699 10696 10692 10689 10686 10683 10679 10675 10671 10667 10663 10659 10656 10652 10649 10645 10641 10637 10633 10629 10625 10619 10614 10609 10605 10601 10596 10591 10586 10580 10574 10569 10564 10559 10554 10549 10544 10540 10535 10532 10528 10525 10521 10516 10512 10509 10506 10504 10502 10501 10500 10500 10500 10499 10499 10500 10500 10501 10501 10502 10503 10505 10506 10508 10509 10509
10738 10736 10733 10731 10728 10724 10722 10720 10717 10715 10713 10710 10707 10704 10701 10698 10696 10694 10691 10688 10685 10682 10678 10676 10672 10668 10664 10660 10657 10653 10649 10645 10642 10638 10635 10631 10627 10623 10618 10613 10608 10604 10599 10595 10591 10586 10581 10576 10570 10564 10559 10554 10549 10544 10539 10534 10530 10526 10523 10519 10516 10512 10507 10503 10500 10499 10498 10496 10495 10494 10494 10494 10493 10493 10494 10495 10496 10497 10498 10499 10500 10502 10503 10504 10505
10728 10726 10723 10720 10717 10714 10712 10710 10707 10704 10702 10700 10697 10694 10692 10688 10685 10683 10680 10677 10675 10672 10669 10666 10662 10658 10654 10650 10647 10643 10639 10635 10632 10628 10624 10620 10616 10612 10607 10603 10598 10594 10589 10585 10581 10576 10570 10565 10559 10554 10548 10543 10538 10534 10529 10524 10520 10516 10513 10510 10507 10503 10499 10495 10493 10492 10491 10491 10490 10489 10488 10488 10488 10488 10489 10490 10492 10493 10494 10495 10496 10498 10499 10500 10500
10718 10715 10713 10710 10708 10705 10702 10700 10697 10694 10692 10690 10687 10685 10682 10679 10676 10674 10671 10668 10665 10662 10659 10655 10652 10648 10645 10641 10637 10633 10629 10625 10621 10618 10614 10610 10606 10602 10597 10593 10588 10584 10579 10575 10570 10565 10560 10554 10549 10543 10538 10533 10528 10523 10519 10514 10510 10507 10504 10501 10498 10494 10491 10488 10486 10485 10485 10485 10484 10483 10483 10483 10483 10483 10484 10486 10487 10489 10490 10491 10492 10494 10496 10496 10497
10707 10705 10703 10700 10698 10695 10692 10690 10687 10685 10682 10680 10677 10675 10673 10670 10668 10665 10662 10659 10655 10651 10648 10645 10642 10639 10635 10631 10627 10623 10619 10615 10611 10607 10604 10600 10596 10592 10587 10583 10578 10573 10569 10564 10560 10554 10549 10543 10538 10533 10528 10524 10519 10514 10509 10505 10501 10498 10495 10492 10489 10486 10484 10481 10480 10479 10478 10478 10478 10478 10477 10477 10477 10478 10479 10481 10483 10485 10486 10487 10489 10491 10492 10493 10493
10696 10694 10692 10690 10687 10685 10682 10679 10677 10674 10672 10670 10669 10667 10664 10662 10659 10655 10652 10648 10644 10641 10637 10634 10631 10628 10624 10620 10616 10612 10608 10605 10601 10598 10594 10589 10585 10581 10577 10572 10568 10563 10559 10554 10549 10543 10538 10533 10528 10524 10519 10514 10510 10505 10500 10497 10493 10490 10487 10484 10482 10479 10477 10475 10474 10473 10472 10472 10472 10472 10472 10472 10472 10473 10475 10477 10479 10481 10482 10484 10486 10488 10489 10490 10491
10685 10683 10682 10679 10677 10674 10671 10669 10666 10664 10663 10661 10660 10658 10655 10651 10648 10645 10641 10638 10634 10630 10627 10623 10620 10616 10613 10609 10606 10602 10598 10595 10591 10588 10583 10579 10575 10571 10567 10562 10558 10553 10548 10543 10538 10533 10528 10523 10519 10514 10510 10505 10500 10496 10492 10488 10485 10482 10479 10476 10474 10472 10470 10468 10467 10467 10466 10465 10466 10467 10467 10467 10467 10468 10470 10473 10475 10477 10478 10480 10482 10484 10485 10487 10488
10674 10673 10671 10669 10666 10663 10660 10658 10656 10655 10653 10652 10650 10647 10644 10640 10637 10633 10630 10627 10623 10620 10616 10612 10608 10605 10602 10599 10595 10591 10588 10585 10581 10577 10573 10569 10565 10561 10557 10552 10548 10543 10537 10532 10528 10523 10519 10514 10509 10504 10500 10495 10491 10487 10483 10480 10477 10474 10471 10469 10467 10465 10463 10462 10461 10460 10459 10459 10460 10461 10462 10462 10462 10463 10466 10469 10471 10473 10475 10477 10479 10481 10482 10484 10485
10664 10663 10661 10658 10656 10653 10650 10648 10646 10644 10642 10641 10638 10636 10632 10629 10625 10622 10619 10616 10613 10609 10605 10601 10597 10594 10591 10588 10584 10581 10578 10574 10571 10567 10564 10560 10555 10551 10547 10542 10537 10532 10527 10522 10518 10514 10509 10504 10499 10494 10490 10485 10481 10478 10474 10472 10469 10466 10464 10462 10460 10458 10456 10455 10454 10453 10453 10453 10455 10456 10457 10457 10457 10459 10461 10464 10467 10469 10471 10473 10475 10478 10479 10481 10483
10653 10653 10651 10648 10645 10642 10639 10637 10635 10633 10630 10628 10626 10623 10620 10617 10613 10610 10607 10605 10602 10598 10594 10590 10587 10584 10580 10577 10574 10571 10568 10564 10561 10558 10554 10549 10545 10540 10536 10531 10526 10521 10516 10512 10508 10504 10499 10494 10489 10485 10480 10476 10473 10470 10467 10464 10462 10459 10457 10455 10453 10451 10449 10448 10448 10447 10447 10447 10449 10451 10452 10452 10453 10454 10457 10460 10462 10464 10466 10469 10472 10474 10476 10478 10480
10642 10642 10640 10637 10634 10632 10629 10626 10623 10620 10618 10616 10614 10611 10608 10605 10602 10599 10597 10594 10591 10587 10584 10581 10577 10574 10571 10568 10565 10561 10558 10555 10551 10548 10544 10539 10534 10529 10525 10520 10515 10510 10506 10502 10498 10494 10489 10484 10480 10476 10472 10468 10465 10462 10460 10457 10455 10452 10450 10448 10446 10444 10443 10442 10441 10441 10441 10441 10443 10445 10447 10447 10448 10449 10452 10455 10458 10460 10462 10465 10468 10471 10473 10476 10478
10630 10630 10628 10626 10623 10621 10619 10616 10612 10609 10607 10605 10602 10599 10596 10593 10591 10588 10586 10583 10580 10578 10575 10571 10568 10565 10562 10559 10556 10552 10548 10544 10541 10537 10533 10528 10523 10518 10514 10510 10505 10500 10496 10492 10488 10484 10480 10476 10472 10468 10464 10461 10458 10455 10453 10450 10448 10446 10444 10442 10440 10438 10437 10436 10436 10436 10436 10436 10438 10440 10442 10443 10443 10445 10447 10450 10453 10456 10458 10461 10464 10467 10470 10473 10475
10618 10618 10617 10615 10612 10610 10608 10606 10602 10599 10596 10594 10591 10588 10585 10583 10580 10578 10575 10573 10570 10568 10565 10562 10559 10556 10552 10548 10545 10541 10537 10534 10530 10525 10521 10517 10512 10507 10503 10499 10494 10490 10486 10482 10478 10475 10471 10467 10464 10461 10457 10454 10451 10448 10446 10444 10442 10440 10438 10436 10434 10432 10431 10430 10430 10430 10431 10431 10433 10435 10437 10438 10439 10440 10442 10445 10448 10451 10454 10457 10460 10464 10467 10470 10473
10608 10606 10604 10602 10600 10599 10597 10595 10591 10588 10585 10582 10580 10578 10576 10573 10570 10568 10566 10563 10561 10558 10555 10552 10549 10546 10541 10537 10534 10529 10525 10521 10517 10513 10509 10505 10501 10497 10492 10488 10483 10480 10477 10473 10470 10466 10462 10459 10457 10454 10451 10448 10445 10442 10439 10437 10436 10434 10432 10430 10428 10427 10426 10425 10425 10425 10425 10426 10428 10429 10432 10433 10434 10436 10437 10440 10443 10447 10450 10453 10456 10460 10463 10467 10470
10597 10595 10592 10589 10587 10586 10584 10582 10578 10575 10573 10571 10569 10567 10565 10562 10560 10557 10556 10553 10550 10547 10544 10541 10538 10534 10530 10526 10522 10517 10513 10509 10505 10502 10498 10494 10490 10485 10481 10477 10474 10471 10468 10465 10461 10458 10454 10452 10450 10447 10445 10442 10438 10435 10433 10431 10430 10428 10426 10424 10423 10422 10421 10420 10420 10420 10420 10421 10422 10424 10426 10428 10429 10431 10432 10435 10438 10442 10446 10449 10452 10456 10459 10463 10466
10585 10582 10580 10578 10576 10574 10572 10569 10566 10563 10562 10561 10559 10556 10554 10552 10549 10547 10545 10542 10539 10536 10533 10530 10526 10523 10519 10514 10510 10506 10502 10498 10494 10491 10488 10484 10480 10475 10470 10467 10465 10462 10460 10456 10453 10450 10447 10444 10442 10440 10438 10435 10432 10430 10428 10426 10424 10422 10421 10419 10418 10417 10416 10416 10415 10415 10415 10416 10417 10418 10420 10422 10424 10426 10428 10430 10433 10437 10441 10445 10448 10451 10455 10459 10463
10574 10571 10569 10567 10565 10564 10562 10558 10556 10554 10552 10550 10548 10546 10543 10541 10539 10536 10533 10531 10528 10525 10522 10518 10515 10511 10507 10503 10499 10496 10492 10489 10485 10481 10478 10474 10470 10466 10462 10459 10457 10455 10451 10448 10445 10442 10439 10437 10435 10433 10432 10429 10427 10425 10423 10421 10419 10418 10416 10415 10414 10413 10412 10411 10411 10410 10411 10411 10412 10413 10414 10417 10419 10421 10423 10425 10428 10432 10436 10441 10444 10447 10451 10455 10458
10564 10561 10559 10556 10555 10553 10551 10548 10546 10544 10542 10539 10537 10534 10532 10530 10527 10525 10522 10519 10516 10513 10510 10506 10503 10499 10495 10491 10488 10486 10483 10480 10476 10472 10469 10465 10461 10457 10454 10452 10450 10447 10444 10440 10437 10435 10432 10430 10429 10428 10426 10423 10421 10420 10418 10416 10415 10413 10412 10411 10410 10409 10408 10407 10407 10406 10407 10407 10408 10408 10409 10412 10414 10416 10418 10420 10423 10427 10431 10436 10440 10443 10446 10450 10454
10554 10552 10550 10547 10544 10542 10539 10537 10535 10533 10530 10528 10525 10523 10520 10518 10516 10513 10510 10507 10504 10501 10497 10494 10491 10487 10483 10480 10478 10476 10474 10471 10467 10464 10460 10456 10452 10449 10446 10444 10442 10440 10437 10434 10431 10428 10426 10424 10423 10421 10420 10418 10416 10415 10413 10412 10410 10409 10408 10407 10406 10405 10404 10404 10404 10403 10404 10404 10404 10404 10405 10407 10409 10412 10414 10416 10418 10422 10426 10431 10435 10438 10442 10446 10450
10544 10542 10539 10537 10535 10532 10529 10526 10523 10521 10518 10515 10513 10510 10508 10505 10503 10500 10497 10494 10491 10489 10485 10482 10479 10477 10474 10471 10468 10466 10464 10461 10458 10454 10451 10448 10444 10441 10438 10436 10435 10432 10429 10427 10424 10422 10420 10418 10417 10415 10413 10412 10410 10409 10408 10407 10406 10405 10404 10403 10401 10401 10401 10401 10401 10400 10401 10401 10401 10401 10401 10402 10404 10407 10409 10411 10413 10417 10421 10426 10430 10434 10437 10441 10445
10535 10532 10529 10527 10524 10522 10519 10516 10512 10509 10506 10503 10501 10498 10495 10492 10490 10487 10485 10482 10479 10477 10475 10471 10469 10467 10465 10462 10460 10457 10455 10452 10449 10446 10443 10440 10436 10433 10431 10429 10427 10425 10422 10420 10417 10415 10413 10412 10411 10409 10408 10406 10405 10404 10403 10403 10402 10401 10400 10399 10398 10397 10397 10397 10397 10397 10397 10397 10397 10397 10398 10398 10400 10402 10404 10406 10409 10412 10416 10421 10425 10429 10433 10437 10441
10525 10522 10519 10516 10513 10510 10507 10504 10501 10498 10495 10492 10489 10486 10483 10480 10478 10476 10473 10471 10468 10467 10465 10462 10460 10458 10456 10453 10451 10448 10446 10444 10441 10438 10435 10432 10429 10427 10424 10422 10420 10418 10415 10413 10410 10408 10407 10407 10406 10404 10402 10401 10400 10399 10399 10398 10398 10397 10396 10395 10394 10394 10394 10394 10394 10394 10394 10394 10394 10394 10394 10395 10396 10397 10400 10402 10404 10407 10411 10415 10420 10424 10428 10432 10436
10514 10511 10508 10505 10502 10499 10495 10492 10489 10486 10483 10480 10477 10474 10471 10469 10467 10465 10463 10461 10459 10457 10455 10453 10451 10449 10447 10445 10442 10440 10438 10436 10433 10430 10428 10425 10422 10420 10417 10415 10413 10411 10408 10406 10403 10402 10401 10401 10400 10398 10397 10395 10394 10394 10394 10394 10393 10392 10391 10391 10390 10390 10390 10390 10390 10391 10391 10391 10390 10391 10391 10391 10392 10393 10395 10397 10399 10402 10406 10410 10415 10419 10424 10428 10432
10502 10499 10495 10492 10489 10486 10483 10480 10477 10474 10471 10468 10465 10463 10461 10459 10457 10455 10453 10452 10450 10448 10447 10445 10443 10441 10439 10437 10435 10432 10430 10428 10426 10423 10421 10418 10416 10414 10411 10409 10406 10404 10402 10399 10397 10396 10395 10395 10394 10392 10391 10390 10389 10389 10389 10389 10389 10388 10387 10387 10387 10386 10386 10387 10387 10387 10387 10387 10387 10387 10387 10388 10389 10389 10390 10392 10394 10397 10401 10405 10409 10413 10418 10423 10427